COSMOS 2539

Last updated on Aug. 7, 2020, 5:35 a.m. UTC

1 44457U 19048A   20219.81207927  .00000069  00000-0  00000-0 0  9991
2 44457   0.0198 120.5250 0000682 145.2546 354.3473  1.00274774  3747
UTC
Height (km)
Latitude
Longitude
Inclination
Orbital Period
UTC large
Height (km)
Speed (km/s)
/
Latitude / Longitude
Inclination (degrees)
Orbital Period (minutes)
Azimuth
Elevation
Range (km)
Doppler Factor
iOS Compass Heading
iOS Angle

Next 30 passes for location: Hong Kong

Rise time Rise Azimuth (degrees) Set time Set Azimuth (degrees) Duration Max altitude (degrees)

No matching passes for this satellites